Location: Canazei
(46.4667°N, 11.7667°E)
Time: 17:57:57
(UTC+00:00)

AQUA - Pass Details

Date: 21 April 2021
Orbit: 701 x 704 km, 98.2° (Epoch: 12 May)

Event Time Altitude Azimuth Distance (km) Brightness Sun altitude
Rises 01:20:09 0° 12° (NNE) 3,100 8.2 -24.9°
Reaches altitude 10° 01:22:25 10° 12° (NNE) 2,177 7.2 -24.7°
Maximum altitude 01:27:12 83° 285° (WNW) 713 3.7 -24.2°
Enters shadow 01:27:30 77° 226° (SW) 725 3.6 -24.2°
